Total_Precipitation_Accumulation
0.47 0.43 0.38 0.37 0.37 0.36 0.36 0.42 0.60 0.77 0.91 1.02 1.15 1.40 1.57 1.66 1.65 1.65 1.71 1.63 1.44 1.53 1.64 1.61 1.82 1.90 1.88 1.89 1.83 1.95 1.99 1.74 1.56 1.85 1.84 1.45 1.16 1.05 1.09 1.16 1.19 1.26 1.29
0.39 0.39 0.32 0.30 0.28 0.26 0.29 0.35 0.50 0.75 0.98 1.18 1.36 1.55 1.87 2.03 2.03 2.10 2.03 1.97 1.86 1.87 1.79 1.87 2.08 2.13 2.25 2.35 2.19 2.32 2.41 2.10 1.80 2.20 2.66 2.20 1.77 1.18 0.96 1.08 1.19 1.34 1.40
0.33 0.36 0.32 0.27 0.22 0.21 0.23 0.28 0.42 0.64 0.94 1.23 1.48 1.69 1.92 2.18 2.27 2.18 2.14 2.16 2.23 2.26 2.15 2.11 2.23 2.25 2.33 2.53 2.57 2.53 2.64 2.57 2.23 2.19 2.64 2.56 2.23 1.78 1.22 1.10 1.19 1.35 1.46
0.32 0.32 0.31 0.30 0.24 0.23 0.24 0.27 0.42 0.57 0.77 1.02 1.35 1.61 1.86 2.17 2.25 2.23 2.21 2.26 2.35 2.43 2.38 2.33 2.39 2.40 2.35 2.48 2.58 2.56 2.78 2.97 2.70 2.43 2.20 2.12 2.16 2.18 1.75 1.33 1.26 1.41 1.49
0.34 0.31 0.31 0.31 0.31 0.30 0.30 0.37 0.49 0.63 0.80 1.01 1.33 1.66 1.84 2.00 2.21 2.23 2.14 2.09 2.16 2.16 2.13 2.24 2.39 2.41 2.38 2.40 2.59 2.70 2.89 2.89 2.81 2.68 2.54 2.36 2.16 1.84 1.94 1.82 1.58 1.56 1.47
0.33 0.35 0.41 0.41 0.39 0.41 0.44 0.52 0.63 0.81 0.94 1.01 1.14 1.31 1.52 1.79 1.93 2.04 2.07 2.09 2.10 1.99 1.90 2.00 2.10 2.18 2.23 2.22 2.28 2.44 2.59 2.77 2.91 2.84 2.67 2.58 2.46 2.28 2.17 1.90 1.75 1.81 1.64
0.43 0.51 0.61 0.57 0.53 0.54 0.63 0.70 0.77 0.84 0.88 0.85 0.90 1.02 1.18 1.40 1.53 1.62 1.82 1.90 1.94 1.90 1.85 1.82 1.89 1.96 2.00 2.10 2.27 2.26 2.29 2.47 2.68 2.68 2.62 2.61 2.40 2.33 2.38 2.20 1.87 1.79 1.67
0.57 0.69 0.81 0.83 0.77 0.75 0.75 0.74 0.76 0.72 0.71 0.73 0.78 0.84 0.90 1.04 1.16 1.23 1.38 1.51 1.51 1.50 1.50 1.57 1.66 1.80 1.89 1.99 2.13 2.18 2.13 2.21 2.28 2.30 2.44 2.52 2.40 2.20 2.15 2.18 2.27 2.03 1.78
0.71 0.87 1.00 1.06 0.99 0.90 0.82 0.80 0.81 0.76 0.68 0.68 0.75 0.80 0.84 0.85 0.88 0.93 0.91 1.00 1.08 1.11 1.17 1.25 1.39 1.58 1.71 1.77 1.87 2.01 2.00 2.06 2.06 2.13 2.20 2.22 2.27 2.12 1.96 1.92 2.02 2.16 1.96
0.93 1.05 1.13 1.12 1.09 1.12 1.05 0.88 0.82 0.82 0.75 0.83 0.83 0.78 0.76 0.74 0.73 0.77 0.81 0.82 0.91 1.01 1.11 1.14 1.21 1.34 1.44 1.53 1.70 1.84 1.91 1.94 1.91 1.90 1.97 2.03 2.08 2.08 2.04 2.01 2.00 2.00 1.95
1.12 1.14 1.20 1.15 1.02 1.03 0.98 0.95 0.90 0.86 0.87 0.89 0.89 0.78 0.74 0.74 0.74 0.72 0.75 0.83 0.91 1.01 1.07 1.12 1.16 1.19 1.28 1.33 1.44 1.59 1.73 1.76 1.77 1.67 1.70 1.81 1.87 2.04 2.08 2.03 1.99 1.99 1.91
1.07 1.10 1.17 1.09 0.94 0.89 0.78 0.80 0.88 0.89 0.96 0.96 0.88 0.78 0.76 0.79 0.84 0.83 0.77 0.80 0.86 0.87 0.98 1.11 1.09 1.08 1.13 1.21 1.33 1.42 1.47 1.57 1.54 1.46 1.48 1.58 1.65 1.78 1.91 2.01 1.92 1.93 1.89
0.86 0.84 0.86 0.93 0.89 0.83 0.74 0.80 0.84 0.90 0.92 0.95 0.93 0.82 0.70 0.73 0.79 0.79 0.72 0.70 0.75 0.80 0.93 1.08 1.21 1.12 1.01 1.11 1.21 1.25 1.28 1.28 1.24 1.23 1.28 1.33 1.39 1.52 1.64 1.75 1.84 1.86 1.79
0.63 0.61 0.58 0.63 0.66 0.67 0.71 0.76 0.86 0.98 1.00 0.98 0.92 0.88 0.81 0.82 0.77 0.66 0.64 0.66 0.65 0.63 0.70 0.85 0.97 1.03 0.99 0.95 0.97 1.00 1.15 1.15 1.06 0.99 0.99 1.01 1.04 1.17 1.30 1.40 1.56 1.72 1.85
0.47 0.46 0.43 0.43 0.45 0.48 0.55 0.61 0.73 0.90 1.01 1.04 1.00 0.92 0.85 0.76 0.68 0.62 0.53 0.54 0.50 0.50 0.58 0.75 0.92 0.98 0.98 1.00 1.00 0.93 0.97 1.03 1.04 0.98 0.88 0.81 0.81 0.92 1.01 1.10 1.36 1.56 1.72
0.33 0.33 0.34 0.33 0.35 0.40 0.48 0.47 0.56 0.72 0.83 0.86 0.87 0.89 0.84 0.67 0.60 0.54 0.46 0.43 0.44 0.45 0.49 0.59 0.75 0.91 0.88 1.03 1.08 1.00 0.91 0.92 0.93 0.93 0.92 0.91 0.86 0.75 0.72 0.79 0.95 1.20 1.40
0.28 0.27 0.27 0.29 0.33 0.41 0.44 0.45 0.53 0.64 0.66 0.68 0.70 0.72 0.69 0.55 0.50 0.40 0.36 0.38 0.39 0.43 0.45 0.52 0.65 0.79 0.92 0.95 0.85 0.93 0.93 0.90 0.92 0.90 0.89 0.92 0.91 0.95 0.85 0.79 0.77 0.81 0.99
0.22 0.26 0.24 0.23 0.26 0.33 0.42 0.51 0.52 0.51 0.51 0.54 0.56 0.54 0.53 0.48 0.41 0.34 0.32 0.34 0.37 0.42 0.44 0.48 0.53 0.60 0.79 0.84 0.74 0.92 0.95 0.96 0.96 0.95 0.96 1.01 1.04 1.00 1.10 1.07 0.98 0.91 0.90
0.12 0.16 0.16 0.16 0.16 0.18 0.21 0.25 0.27 0.28 0.30 0.38 0.45 0.48 0.46 0.41 0.36 0.32 0.38 0.43 0.44 0.43 0.42 0.42 0.44 0.47 0.56 0.65 0.63 0.77 0.91 1.01 1.01 0.91 0.91 0.97 1.01 1.20 1.24 1.15 1.12 1.05 0.99
0.06 0.09 0.12 0.11 0.10 0.10 0.10 0.10 0.11 0.14 0.18 0.25 0.31 0.37 0.41 0.41 0.43 0.51 0.59 0.59 0.54 0.49 0.44 0.40 0.39 0.42 0.45 0.57 0.47 0.59 0.77 0.94 1.05 0.98 0.93 1.08 1.05 1.06 1.02 0.98 1.17 1.14 1.04
0.04 0.06 0.08 0.09 0.09 0.09 0.08 0.07 0.07 0.05 0.06 0.10 0.15 0.25 0.39 0.45 0.52 0.61 0.63 0.62 0.56 0.46 0.41 0.39 0.37 0.38 0.46 0.61 0.55 0.62 0.73 0.86 0.96 0.98 0.99 0.96 1.04 0.88 0.83 0.88 1.02 1.17 1.12
0.05 0.06 0.06 0.07 0.09 0.10 0.08 0.08 0.12 0.08 0.07 0.09 0.14 0.20 0.29 0.40 0.53 0.61 0.58 0.56 0.56 0.50 0.45 0.45 0.42 0.43 0.53 0.61 0.61 0.63 0.70 0.78 0.86 0.86 0.77 0.76 0.84 0.70 0.65 0.63 0.77 0.95 0.98
0.05 0.06 0.07 0.07 0.08 0.08 0.09 0.08 0.09 0.09 0.08 0.09 0.09 0.11 0.18 0.30 0.45 0.50 0.49 0.50 0.51 0.50 0.46 0.43 0.40 0.40 0.47 0.58 0.70 0.61 0.55 0.55 0.63 0.67 0.65 0.58 0.54 0.54 0.50 0.53 0.63 0.70 0.84
0.05 0.05 0.05 0.06 0.06 0.07 0.07 0.09 0.09 0.08 0.07 0.08 0.08 0.08 0.08 0.10 0.16 0.21 0.26 0.33 0.38 0.39 0.38 0.38 0.41 0.43 0.43 0.44 0.50 0.53 0.50 0.46 0.47 0.46 0.38 0.37 0.40 0.46 0.48 0.49 0.51 0.57 0.78
0.06 0.05 0.05 0.06 0.06 0.06 0.06 0.08 0.08 0.08 0.08 0.08 0.07 0.07 0.09 0.12 0.12 0.13 0.16 0.19 0.21 0.26 0.31 0.34 0.37 0.37 0.40 0.40 0.43 0.45 0.46 0.52 0.56 0.58 0.49 0.43 0.41 0.42 0.46 0.48 0.54 0.66 0.76
0.05 0.05 0.06 0.07 0.07 0.06 0.07 0.07 0.07 0.08 0.08 0.09 0.08 0.06 0.07 0.09 0.09 0.10 0.12 0.13 0.13 0.15 0.16 0.19 0.21 0.21 0.26 0.34 0.36 0.39 0.41 0.44 0.51 0.56 0.58 0.58 0.58 0.58 0.57 0.55 0.52 0.53 0.62